User: anonymous   Login
Location: Mauna Kea VIS
(19.7591°N, 155.4561°W)
Time: 18:30:59
(UTC-10:00)
Language:

Cosmos 1624 Rocket - Orbit

View from above orbital plane
View from above orbital plane
View from above satellite
View from above satellite

Ground track
Ground track

The orbit data is extracted from the following two-line orbital elements,

1 15483U 85006B   16177.52857418  .00000056  00000-0  28296-4 0  9994
2 15483  74.0466 289.7787 0019025 355.6720  84.0497 14.36127083645353
Epoch (UTC): 25 June 2016 12:41:08
Eccentricity: 0.0019025
inclination: 74.0466°
perigee height: 758 km
apogee height: 785 km
right ascension of ascending node: 289.7787°
argument of perigee: 355.6720°
revolutions per day: 14.36127083
mean anomaly at epoch: 84.0497°
orbit number at epoch: 64535

The dashed part of the orbit path shows where the satellite is in the earth's shadow,  

DLR